Regional Weather Roundup
Issued by NWS

Home | Current Version | Previous Version | Text Only | Print | Product List | Glossary On
Versions: 1 2 3 4 5 6 7 8 9 10 11 12 13 14 15 16 17 18 19 20 21 22 23 24 25 26 27 28 29 30 31 32 33 34 35 36 37 38 39 40 41 42 43 44 45 46 47 48 49 50
000
ASUS43 KOAX 020310
RWRNE

WEATHER ROUNDUP FOR NEBRASKA
NATIONAL WEATHER SERVICE OMAHA NE
1000 PM CDT MON JUN 01 2015

NOTES: SATELLITE DATA IS BEING USED TO AUGMENT CLOUD COVER ABOVE
       12000 FEET.
       "FAIR" INDICATES FEW OR NO CLOUDS BELOW 12,000 FEET WITH NO
       SIGNIFICANT WEATHER AND/OR OBSTRUCTIONS TO VISIBILITY.

  * THESE STATIONS DO NOT REPORT WEATHER SUCH AS RAIN...SNOW OR FOG.

NEZ001>004-019>022-054>056-020400-
NEBRASKA PANHANDLE

CITY           SKY/WX    TMP DP  RH WIND       PRES   REMARKS
SCOTTSBLUFF    CLOUDY    64  56  75 E9        29.96S
ALLIANCE       LGT RAIN  64  56  75 S16G22    29.96R
CHADRON        CLOUDY    69  50  50 SW6       29.87S
KIMBALL          N/A    N/A N/A N/A MISG        N/A
SIDNEY         LGT RAIN  64  53  67 N8        30.00F
$$

NEZ057>060-069>072-079>082-020400-
SOUTHWEST NEBRASKA

CITY           SKY/WX    TMP DP  RH WIND       PRES   REMARKS
NORTH PLATTE   CLOUDY    67  61  81 SE13      29.98R
IMPERIAL       CLOUDY    72  62  71 SE14      29.97R
LEXINGTON      MOCLDY    67  61  80 SE12G17   30.00S
MCCOOK         MOCLDY    70  62  76 E8        29.97S
OGALLALA       TSTM      59  57  93 NW17      30.03R
$$

NEZ005>010-023>029-035>040-094-020400-
NORTH CENTRAL NEBRASKA

CITY           SKY/WX    TMP DP  RH WIND       PRES   REMARKS
VALENTINE      CLOUDY    71  60  68 S13       29.93R
AINSWORTH      MOCLDY    68  59  74 S15       29.96S
BROKEN BOW     CLOUDY    67  59  75 S14       30.01R
O`NEILL        CLEAR     68  58  71 S10       29.99R
ORD            MOCLDY    68  57  68 S12       30.00R
THEDFORD       CLOUDY    69  62  76 SE14      29.96F
$$

NEZ041-046>049-061>064-073>077-083>087-020400-
SOUTH CENTRAL NEBRASKA

CITY           SKY/WX    TMP DP  RH WIND       PRES   REMARKS
GRAND ISLAND   CLEAR     68  57  68 S14       30.03R
AURORA         CLEAR     68  56  65 S10       30.04R
HASTINGS       MOCLDY    67  58  72 S9        30.03R
HEBRON         MOCLDY    67  55  66 SE9       30.05S
HOLDREGE       CLEAR     64  58  79 SE13      30.02R
KEARNEY *      CLEAR     64  57  77 SE13      30.03R
YORK           PTCLDY    68  54  60 S10       30.05R
$$

NEZ011>018-030>034-042>045-020400-
NORTHEAST NEBRASKA

CITY           SKY/WX    TMP DP  RH WIND       PRES   REMARKS
NORFOLK        CLEAR     68  53  58 SE13      30.02R
ALBION         CLEAR     67  54  62 S7        30.01S
BLAIR          CLEAR     64  51  60 SE8       30.06S
COLUMBUS *     CLEAR     66  52  59 SE9       30.05R
FREMONT        CLEAR     67  53  60 SE6       30.06R
TEKAMAH        CLEAR     67  51  56 SE10      30.06R
WAYNE          CLEAR     66  52  59 SE12      30.03R
$$

NEZ050>053-065>068-078-088>093-020400-
SOUTHEAST NEBRASKA

CITY           SKY/WX    TMP DP  RH WIND       PRES   REMARKS
LINCOLN        CLEAR     67  54  63 SE9       30.06R
OMAHA EPPLEY   PTCLDY    65  51  60 SE10      30.06S
BEATRICE       CLEAR     64  55  71 SE6       30.07S
FALLS CITY     CLEAR     61  54  77 S9        30.09R
NEBRASKA CITY  CLEAR     62  50  63 S7        30.09R
PLATTSMOUTH    CLEAR     64  50  62 SE7       30.08R
$$

NEZ044-045-051>053-067-020400-
OMAHA AREA

CITY           SKY/WX    TMP DP  RH WIND       PRES   REMARKS
OMAHA EPPLEY   PTCLDY    65  51  60 SE10      30.06S
BLAIR          CLEAR     64  51  60 SE8       30.06S
FREMONT        CLEAR     67  53  60 SE6       30.06R
MILLARD        CLEAR     65  54  65 SE5       30.06S
OFFUTT AFB     CLEAR     61  52  72 E9        30.07R
PLATTSMOUTH    CLEAR     64  50  62 SE7       30.08R
WAHOO          FAIR      65  54  66 SE7       30.06R
$$



USA.gov is the U.S. government's official web portal to all federal, state and local government web resources and services.